Milwaukee, WI

3:48 PM CST on November 17, 2018 (GMT -0600)
Gen Mitchell International

Weather History for KMKE - November, 2018

Change the Weather History Date:

Friday, November 9, 2018

  Actual Average Record
Temperature  
Mean Temperature 29 °F 42 °F  
Max Temperature 37 °F 50 °F 75 °F (1999)
Min Temperature 21 °F 35 °F 16 °F (1925)
Degree Days  
Heating Degree Days 36 23  
Month to date heating degree days 212 189  
Since 1 July heating degree days 724 774  
Cooling Degree Days 0 0  
Month to date cooling degree days 0 0  
Year to date cooling degree days 929 641  
Moisture  
Dew Point 22 °F    
Average Humidity 66    
Maximum Humidity 89    
Minimum Humidity 43    
Precipitation  
Precipitation 0.24 in 0.08 in 1.54 in (1984)
Month to date precipitation 1.55 0.82  
Year to date precipitation 42.09 30.83  
Snow  
Snow 3.10 in 0.10 in 6.00 in (1926)
Month to date snowfall 3.1 0.2  
Since 1 July snowfall 3.1 0.5  
Since 1 September snowfall 3.1 0.5  
Snow Depth 2.00 in    
Sea Level Pressure  
Sea Level Pressure 30.11 in    
Wind  
Wind Speed 13 mph (WNW)    
Max Wind Speed 24 mph    
Max Gust Speed 35 mph    
Visibility 4 miles    
Events Fog , Snow    
T = Trace of Precipitation, MM = Missing Value Source: NWS Daily Summary

Daily Weather History Graph

Daily Weather History Graph

Search for Another Location

Airport or City:

Astronomy

Nov. 09, 2018 Rise Set
Actual Time 6:36 AM CST 4:34 PM CST
Civil Twilight 6:06 AM CST 5:04 PM CST
Nautical Twilight 5:32 AM CST 5:38 PM CST
Astronomical Twilight 4:58 AM CST 6:11 PM CST
Moon 8:26 AM CST (11/9) 6:18 PM CST (11/9)
Length of Visible Light 10h 57m
Length of Day
9h 57m
Waxing Crescent, 5% of the Moon is Illuminated
Nov 9
Waxing Crescent
Nov 15
First Quarter
Nov 22
Full
Nov 29
Last Quarter
Dec 7
New

Hourly Weather History & Observations

Time (CST) Temp. Windchill Dew Point Humidity Pressure Visibility Wind Dir Wind Speed Gust Speed Precip Events Conditions
12:52 AM 37.0 °F 34.5 °F 26.1 °F 65% 30.25 in 10.0 mi North 3.5 mph - 0.00 in Snow Light Snow
1:12 AM 36.0 °F - 26.1 °F 67% 30.22 in 2.5 mi Calm Calm - 0.00 in Snow Light Snow
1:52 AM 33.1 °F 30.0 °F 30.0 °F 89% 30.22 in 1.8 mi NW 3.5 mph - 0.02 in Snow Light Snow
2:20 AM 33.1 °F 30.0 °F 30.0 °F 89% 30.18 in 1.2 mi NNW 3.5 mph - 0.01 in Snow Light Snow
2:52 AM 33.1 °F 28.7 °F 30.0 °F 89% 30.19 in 1.2 mi NW 4.6 mph - 0.04 in Snow Light Snow
3:03 AM 33.1 °F 28.7 °F 30.0 °F 89% 30.15 in 1.2 mi WNW 4.6 mph - 0.01 in Snow Light Snow
3:48 AM 33.8 °F 28.6 °F 30.2 °F 87% 30.13 in 0.8 mi WNW 5.8 mph - 0.05 in Snow Light Snow
3:52 AM 33.1 °F 27.7 °F 30.0 °F 89% 30.15 in 0.8 mi WNW 5.8 mph - 0.05 in Snow Light Snow
4:04 AM 33.1 °F 27.7 °F 30.0 °F 89% 30.12 in 1.0 mi WNW 5.8 mph - 0.01 in Snow Light Snow
4:12 AM 33.1 °F 26.9 °F 30.0 °F 89% 30.12 in 1.0 mi WNW 6.9 mph - 0.02 in Snow Light Snow
4:52 AM 33.1 °F 26.9 °F 30.0 °F 89% 30.14 in 1.2 mi WNW 6.9 mph - 0.05 in Snow Light Snow
5:22 AM 32.0 °F 24.8 °F 30.0 °F 92% 30.10 in 1.5 mi WNW 8.1 mph - 0.02 in Snow Light Snow
5:52 AM 32.0 °F 26.4 °F 28.9 °F 88% 30.12 in 1.8 mi WNW 5.8 mph - 0.03 in Snow Light Snow
6:39 AM 32.0 °F 26.4 °F 28.9 °F 88% 30.09 in 1.2 mi WNW 5.8 mph - 0.00 in Snow Light Snow
6:50 AM 32.0 °F 25.6 °F 28.4 °F 87% 30.09 in 1.0 mi WNW 6.9 mph - 0.01 in Snow Light Snow
6:52 AM 32.0 °F 25.6 °F 28.9 °F 88% 30.12 in 1.0 mi West 6.9 mph - 0.01 in Snow Light Snow
7:47 AM 32.0 °F 24.8 °F 28.4 °F 87% 30.08 in 0.5 mi West 8.1 mph - 0.01 in Fog , Snow Snow
7:52 AM 32.0 °F 24.2 °F 28.9 °F 88% 30.11 in 0.5 mi West 9.2 mph - 0.01 in Fog , Snow Snow
8:24 AM 32.0 °F 22.1 °F 28.0 °F 85% 30.08 in 0.8 mi WNW 13.8 mph 19.6 mph 0.02 in Snow Light Snow
8:52 AM 32.0 °F 23.0 °F 28.0 °F 85% 30.10 in 0.8 mi WNW 11.5 mph - 0.02 in Snow Light Snow
9:10 AM 32.0 °F 23.0 °F 27.0 °F 82% 30.07 in 1.2 mi NW 11.5 mph 21.9 mph 0.01 in Snow Light Snow
9:20 AM 32.0 °F 21.6 °F 26.1 °F 79% 30.07 in 2.0 mi WNW 15.0 mph 20.7 mph 0.01 in Snow Light Snow
9:44 AM 30.9 °F 20.2 °F 25.0 °F 79% 30.07 in 2.0 mi NW 15.0 mph 23.0 mph 0.01 in Snow Light Snow
9:52 AM 30.9 °F 22.2 °F 25.0 °F 79% 30.09 in 2.0 mi NW 10.4 mph 20.7 mph 0.01 in Snow Light Snow
9:59 AM 30.9 °F 21.2 °F 26.1 °F 82% 30.07 in 3.0 mi WNW 12.7 mph - 0.00 in Snow Light Snow
10:22 AM 30.9 °F 20.7 °F 25.0 °F 79% 30.06 in 3.0 mi WNW 13.8 mph 25.3 mph 0.00 in Snow Light Snow
10:52 AM 32.0 °F 19.5 °F 21.9 °F 66% 30.09 in 10.0 mi WNW 21.9 mph 29.9 mph 0.00 in   Mostly Cloudy
11:52 AM 32.0 °F 20.8 °F 21.0 °F 64% 30.07 in 10.0 mi NW 17.3 mph 27.6 mph N/A   Mostly Cloudy
12:52 PM 32.0 °F 20.5 °F 18.0 °F 56% 30.06 in 10.0 mi WNW 18.4 mph 28.8 mph N/A   Scattered Clouds
1:52 PM 32.0 °F 21.6 °F 16.0 °F 52% 30.06 in 10.0 mi WNW 15.0 mph 27.6 mph N/A   Partly Cloudy
2:52 PM 32.0 °F 20.8 °F 12.9 °F 45% 30.06 in 10.0 mi WNW 17.3 mph 27.6 mph N/A   Partly Cloudy
3:52 PM 30.9 °F 19.1 °F 10.9 °F 43% 30.08 in 10.0 mi WNW 18.4 mph 32.2 mph N/A   Partly Cloudy
4:52 PM 30.0 °F 20.0 °F 12.0 °F 47% 30.08 in 10.0 mi West 12.7 mph - N/A   Partly Cloudy
5:52 PM 28.9 °F 17.3 °F 12.9 °F 51% 30.09 in 10.0 mi WNW 16.1 mph 27.6 mph N/A   Scattered Clouds
6:52 PM 26.1 °F 12.3 °F 8.1 °F 47% 30.11 in 10.0 mi West 19.6 mph 31.1 mph N/A   Scattered Clouds
7:50 PM 24.8 °F 12.9 °F 14.0 °F 64% 30.08 in 1.8 mi West 13.8 mph 25.3 mph 0.00 in Snow Light Snow
7:52 PM 24.1 °F 11.5 °F 14.0 °F 65% 30.12 in 1.8 mi West 15.0 mph 25.3 mph 0.00 in Snow Light Snow
8:00 PM 24.1 °F 12.5 °F 15.1 °F 69% 30.08 in 2.5 mi West 12.7 mph 25.3 mph 0.00 in Snow Light Snow
8:15 PM 23.0 °F 10.1 °F 16.0 °F 74% 30.08 in 5.0 mi West 15.0 mph 24.2 mph 0.00 in Snow Light Snow
8:29 PM 24.1 °F 12.5 °F 15.1 °F 69% 30.08 in 5.0 mi WNW 12.7 mph 21.9 mph 0.00 in Snow Light Snow
8:52 PM 24.1 °F 9.0 °F 9.0 °F 53% 30.12 in 9.0 mi WNW 21.9 mph 34.5 mph 0.00 in Snow Light Snow
9:52 PM 21.9 °F 8.7 °F 8.1 °F 55% 30.11 in 10.0 mi West 15.0 mph 27.6 mph 0.00 in   Partly Cloudy
10:52 PM 21.9 °F 9.2 °F 10.0 °F 60% 30.10 in 9.0 mi West 13.8 mph 25.3 mph N/A   Overcast
11:28 PM 21.0 °F 8.1 °F 14.0 °F 74% 30.07 in 2.5 mi WSW 13.8 mph 24.2 mph 0.00 in Snow Light Snow
11:36 PM 21.0 °F 6.6 °F 14.0 °F 74% 30.06 in 1.2 mi WSW 17.3 mph 25.3 mph 0.00 in Snow Light Snow
11:52 PM 21.0 °F 6.6 °F 15.1 °F 78% 30.09 in 1.8 mi WSW 17.3 mph 25.3 mph 0.00 in Snow Light Snow